Location: Buena Vista Lake
(37.6001°N, 119.5170°W)
Time: 18:10:33
(UTC+00:00)

Cosmos 2221 Rocket - Pass Details

Date: 05 August 2024
Orbit: 617 x 644 km, 82.5° (Epoch: 12 September)

Event Time Altitude Azimuth Distance (km) Brightness Sun altitude
Rises 12:30:16 0° 355° (N) 2,962 7.4 -7.2°
Reaches altitude 10° 12:32:32 10° 357° (N) 2,049 6.6 -6.8°
Maximum altitude 12:37:05 72° 82° (E) 681 4.0 -6.0°
Drops below altitude 10° 12:41:35 10° 167° (SSE) 2,032 6.1 -5.2°
Sets 12:43:50 0° 169° (S) 2,935 6.9 -4.8°
